Theta_e
324 324 323 324 324 325 326 326 326 327 328 329 331 331 332 332 332 332 332 331 332 331 332 332 332 332 333 333 332 329 327 320 317 312 306 311 318 326 331 330 334 338 332 318 314 313 309 310 311 316 311 309 307 305 307 309 312 306 300 293 293 295 295 295 294 293 295 295 296 297 298 299 298 302 303 304 303 302 306 309 310 318 319 319 321 325 325 324
324 324 324 323 324 324 325 326 326 327 327 328 329 330 331 332 332 332 332 332 331 332 332 332 332 332 332 332 331 327 322 319 314 312 309 321 324 326 329 332 334 337 327 315 311 311 308 308 310 310 307 304 311 305 309 305 311 304 298 295 292 296 298 296 295 294 295 295 296 296 296 299 300 300 303 300 299 303 304 305 310 313 317 321 322 323 323 322
324 324 323 323 323 324 324 325 326 327 327 327 328 329 330 330 331 331 331 331 331 332 332 332 332 331 331 331 329 325 321 317 315 312 316 327 330 326 329 333 334 335 318 315 313 312 310 309 311 309 308 304 307 301 307 303 307 305 298 294 294 301 300 297 295 297 296 297 297 297 298 297 299 302 303 300 297 299 302 304 305 311 313 315 318 321 321 321
324 323 323 324 324 324 324 324 325 326 326 327 328 329 329 329 330 331 331 331 331 331 331 331 331 330 329 330 327 323 321 316 312 317 322 330 328 331 332 333 337 333 318 320 317 317 318 316 313 310 307 304 305 305 301 303 302 303 300 295 298 302 297 299 297 297 296 296 296 296 297 297 298 299 301 298 297 296 298 304 309 310 316 317 319 320 320 319
323 323 323 323 323 323 323 323 323 325 326 327 327 328 328 329 329 330 331 331 331 331 331 331 330 330 329 329 326 323 318 310 312 322 326 331 331 329 331 333 337 327 319 320 320 320 319 314 312 310 306 302 304 303 299 301 304 301 299 300 302 299 298 299 300 300 298 297 296 296 296 297 299 298 296 297 295 293 296 299 307 315 320 319 319 320 320 319
323 323 323 323 323 323 323 323 324 324 326 326 327 327 328 329 329 329 330 331 331 331 330 330 330 329 329 326 323 321 315 297 315 316 327 332 331 331 330 333 336 321 318 317 318 318 315 314 311 306 303 302 301 299 300 301 304 297 297 301 300 297 297 299 301 300 300 299 297 297 299 299 296 296 295 296 296 297 297 299 307 316 322 322 322 321 320 319
322 322 323 323 323 324 325 324 325 326 326 326 327 327 328 328 328 328 328 330 330 330 330 330 329 329 326 325 322 318 312 315 319 320 331 334 333 331 330 333 333 317 316 315 316 315 316 312 310 306 304 303 302 300 303 302 303 299 298 299 301 298 297 300 301 299 298 299 300 299 300 301 298 297 297 296 296 299 297 298 304 316 323 323 321 321 320 320
320 321 321 321 322 323 324 324 325 325 325 326 326 327 327 328 328 328 328 329 330 330 330 329 328 327 325 321 316 311 309 311 320 324 329 332 331 328 328 325 320 316 314 313 314 313 315 311 308 308 304 302 303 303 303 301 302 299 298 299 300 299 299 301 301 299 300 300 299 300 301 299 297 298 296 296 297 298 299 298 301 312 321 322 321 320 320 320
320 320 320 321 321 321 322 324 324 324 325 325 326 326 327 327 327 328 327 328 329 330 329 328 327 326 326 321 314 308 307 319 323 326 326 327 326 323 323 320 318 314 312 313 314 314 313 310 311 311 304 304 306 304 301 302 298 300 300 298 299 298 300 300 302 302 301 301 300 301 298 298 298 299 297 300 299 299 299 302 307 313 320 320 321 321 321 320
319 320 321 321 321 321 321 322 323 324 324 325 325 326 327 327 327 327 327 328 328 329 329 328 327 326 321 318 312 304 314 323 325 327 326 324 322 322 319 319 316 313 311 312 314 313 311 311 311 313 313 309 308 303 301 303 300 301 300 299 300 299 299 302 300 301 302 303 302 302 299 300 300 299 294 297 299 298 299 301 308 312 318 320 321 321 321 321
319 320 321 321 321 321 321 322 322 323 324 324 325 325 326 326 327 327 327 328 328 328 328 327 327 323 318 318 308 302 319 322 324 327 326 325 323 319 316 317 316 313 312 312 313 314 315 317 316 313 311 310 308 304 301 300 302 301 301 300 299 302 302 303 302 302 302 303 301 301 300 299 299 297 296 300 301 298 298 297 307 308 314 319 320 320 321 321
319 320 321 321 321 321 322 322 322 322 324 324 324 325 325 326 326 327 327 328 328 328 327 327 325 323 318 315 309 307 320 324 326 327 325 324 321 321 319 318 315 314 313 311 312 316 318 317 316 311 304 312 306 304 301 303 301 300 301 298 297 301 300 300 301 301 302 302 301 301 300 300 298 297 298 301 303 300 298 298 305 307 309 315 318 319 319 320
318 319 320 320 320 321 321 322 322 322 323 324 324 324 324 326 326 326 326 326 328 328 326 326 324 320 313 306 312 318 319 323 326 327 326 325 322 320 319 318 316 315 315 313 312 317 319 319 317 311 312 310 309 304 307 306 302 302 301 298 297 297 296 300 302 302 302 302 301 302 293 298 301 303 302 302 301 300 298 297 300 307 308 309 313 318 319 319
318 318 319 319 319 320 321 321 321 322 322 323 324 324 324 325 325 326 326 325 328 328 326 326 319 316 312 308 316 320 323 325 327 325 323 324 321 320 321 319 317 315 316 316 316 318 319 320 318 314 315 311 305 313 309 305 303 297 299 300 294 293 293 298 301 300 300 302 301 303 294 298 299 301 302 302 301 300 299 299 299 301 305 308 309 314 317 318
318 318 318 318 318 319 320 320 321 321 322 323 323 323 323 324 325 326 326 325 327 328 325 324 319 311 306 310 317 321 328 326 322 322 324 320 318 316 316 317 316 315 316 317 317 320 321 319 317 313 309 313 310 308 302 301 298 298 296 293 296 294 295 298 301 301 299 300 302 301 294 297 300 302 302 303 300 299 299 299 298 299 300 304 308 310 314 318
317 317 318 318 318 318 319 319 320 321 321 322 322 322 321 322 324 325 325 324 327 325 322 315 314 311 304 302 311 325 321 316 317 324 324 321 318 314 318 315 317 316 316 316 321 322 321 319 312 311 310 313 309 303 300 299 298 298 296 292 293 294 293 294 300 301 302 300 300 301 294 295 297 302 302 300 301 298 298 297 297 298 300 300 304 308 311 314
317 317 317 317 317 318 318 319 319 320 320 320 321 321 321 321 323 325 325 324 320 323 319 312 315 313 300 309 316 312 310 315 323 323 323 323 320 318 316 314 312 314 314 316 319 318 317 312 310 311 311 306 307 303 295 294 293 295 296 292 295 293 292 291 295 298 300 300 296 298 297 298 299 300 298 297 298 296 296 298 297 297 299 301 302 305 309 311
317 317 317 317 317 317 318 319 319 319 320 319 319 319 318 322 323 321 319 317 315 313 313 316 313 305 302 310 303 307 315 315 319 322 322 323 323 318 316 313 315 313 313 312 314 311 312 305 308 302 302 303 303 300 294 289 293 293 293 293 294 296 295 294 293 297 299 298 297 294 295 298 300 302 303 301 295 297 296 297 297 297 297 300 301 302 305 310
317 317 317 317 317 317 317 318 319 319 319 320 320 321 320 320 317 316 312 311 307 301 298 299 302 292 289 300 309 313 313 318 321 321 317 318 319 320 318 318 316 312 306 306 305 308 306 303 303 300 297 299 299 299 297 297 298 296 296 296 295 293 293 292 296 295 298 296 295 293 293 297 299 299 300 299 296 295 296 297 297 297 296 296 300 302 303 307
317 317 317 317 317 317 317 318 318 319 319 316 313 312 311 304 303 301 308 308 304 304 306 305 307 302 301 304 306 312 317 320 315 317 319 319 317 315 313 313 310 311 307 300 304 306 306 299 297 296 298 300 302 302 301 301 301 300 298 297 295 294 294 296 296 298 295 296 295 295 294 295 296 297 298 298 296 295 295 295 296 296 296 295 296 301 303 305
315 317 317 317 317 317 317 318 318 318 318 311 311 305 296 298 293 291 301 304 306 306 303 306 307 303 302 304 307 310 308 311 315 315 317 320 317 312 307 308 304 300 303 305 303 307 305 297 298 301 301 302 303 303 303 301 301 299 297 295 294 293 293 296 297 299 293 295 292 294 294 294 296 298 297 297 296 296 297 297 297 298 298 297 297 298 301 305
314 314 316 316 317 317 318 318 318 318 317 311 308 300 299 303 304 310 305 295 303 305 302 304 308 302 304 304 306 309 312 308 308 312 316 317 311 306 305 304 301 297 302 304 304 300 298 296 300 302 304 304 304 304 303 301 298 298 297 295 293 292 294 298 294 293 293 294 292 292 291 294 297 298 298 297 298 300 301 300 300 299 299 299 298 298 300 302
314 314 315 316 316 317 317 318 317 317 309 306 304 302 298 305 308 308 304 299 297 304 302 302 302 302 300 305 306 308 306 304 303 308 312 314 307 306 305 302 300 300 300 302 297 296 293 298 302 304 304 302 301 302 302 301 300 297 295 294 292 293 294 290 295 293 293 293 289 290 291 293 296 297 298 300 300 301 302 302 302 302 301 301 301 300 299 301
313 313 314 316 316 316 317 317 318 313 307 307 305 303 303 307 307 307 300 288 290 300 303 303 301 300 299 303 309 306 305 303 307 305 316 312 305 308 305 302 299 299 297 300 300 298 297 302 305 303 301 301 299 300 300 299 297 298 297 295 294 294 296 296 292 293 292 293 293 291 291 291 294 294 296 298 299 300 302 303 303 304 304 305 305 304 302 302
313 313 314 313 315 315 315 316 309 307 309 307 304 305 307 309 308 304 295 291 290 292 305 303 301 300 302 306 307 304 303 303 303 311 314 312 306 307 303 307 302 296 298 300 300 299 300 303 306 302 301 301 300 297 298 298 295 296 298 299 298 299 298 297 293 292 287 288 291 293 284 284 290 294 295 298 293 295 298 297 300 302 303 303 303 304 305 303
313 313 313 312 313 315 317 306 305 309 306 303 305 306 307 308 306 302 295 280 278 288 300 292 305 299 308 300 301 301 305 299 304 307 315 314 314 308 307 302 303 295 299 299 299 300 301 304 304 301 301 300 299 298 299 300 296 294 296 300 300 300 300 294 291 291 284 283 289 292 287 284 286 288 290 291 290 293 294 294 298 299 301 302 303 304 305 304
313 314 313 311 313 314 305 299 309 308 301 302 307 309 304 308 305 301 292 279 277 291 288 299 298 296 305 301 303 303 289 294 305 310 311 315 309 311 302 300 303 303 303 303 298 294 302 301 301 302 301 299 297 296 299 300 296 293 298 300 301 300 298 293 293 292 287 289 289 289 288 283 285 291 294 295 294 295 296 297 297 298 299 300 302 304 304 304
313 315 313 313 313 312 305 308 306 302 303 306 310 308 307 306 304 300 287 274 272 295 287 293 297 303 301 303 304 298 294 304 296 303 312 314 314 307 305 301 299 300 302 301 288 299 302 298 300 299 299 298 297 299 301 301 297 292 297 301 299 300 298 295 293 289 289 290 288 287 288 284 282 286 288 291 293 293 295 297 299 299 299 300 301 303 304 305
314 314 313 314 314 313 310 307 305 302 307 309 309 306 305 305 302 291 281 272 290 284 308 293 307 300 299 303 299 299 295 299 295 304 310 312 313 307 301 303 303 303 303 301 294 298 303 302 302 302 299 297 300 302 301 301 297 295 299 301 301 300 295 296 289 290 289 288 287 290 288 285 288 285 289 288 289 291 294 296 297 299 300 300 300 302 303 304
311 313 314 314 312 308 304 307 304 307 309 309 306 305 304 301 293 283 277 268 288 276 293 297 296 292 299 295 295 298 294 295 297 302 307 304 308 309 306 312 305 302 299 302 300 299 302 305 305 303 299 301 302 301 302 302 300 297 299 298 294 291 289 287 287 287 289 286 289 292 289 289 286 286 292 289 289 292 294 295 297 298 298 298 299 300 302 302
312 313 314 313 306 307 305 301 304 309 309 307 307 304 299 293 283 276 271 278 285 285 297 294 290 299 293 292 290 296 295 293 294 302 299 305 301 305 305 301 306 300 298 299 297 300 301 302 301 301 306 303 303 299 302 304 300 300 291 291 293 289 289 290 287 288 286 285 290 292 288 290 285 285 286 293 292 291 294 296 296 296 297 298 298 299 300 301
313 314 315 310 310 310 302 300 307 309 308 307 305 299 293 279 283 274 273 289 277 284 287 288 295 293 293 295 293 293 292 292 294 299 297 297 296 297 298 293 297 287 287 290 289 297 295 297 301 303 305 304 301 299 296 299 299 299 294 294 289 283 288 283 286 284 284 285 285 288 290 285 288 292 291 292 293 295 294 296 297 297 297 296 296 297 299 300
313 314 314 311 310 307 307 309 310 308 307 305 301 297 286 278 271 279 281 280 272 289 286 294 292 292 292 291 290 293 295 290 294 295 300 299 297 298 301 300 300 296 286 293 291 291 292 298 300 299 300 304 303 295 290 291 295 295 293 291 287 283 283 281 284 286 286 286 286 287 288 287 289 290 294 298 301 301 300 298 296 295 295 296 297 296 296 296
313 313 308 309 309 309 309 310 309 308 305 303 297 289 284 275 274 287 282 278 277 289 293 290 292 291 291 287 289 294 289 293 293 292 296 295 296 293 297 300 301 297 293 293 290 290 285 286 293 298 294 304 302 301 298 296 295 295 298 295 290 289 284 280 283 281 283 284 285 288 288 282 283 286 289 295 297 296 296 297 296 296 296 297 297 293 292 293
314 311 310 309 308 308 309 309 308 307 303 299 292 284 275 275 281 279 280 279 279 289 290 294 290 289 287 289 291 293 293 289 294 292 291 292 290 293 294 296 300 300 296 288 291 290 289 290 297 303 302 304 300 303 303 299 296 297 295 297 291 287 288 284 283 286 285 281 281 283 286 285 288 289 292 293 291 293 293 293 292 292 293 295 296 298 299 298
310 307 309 302 305 307 309 309 308 307 302 295 286 279 277 280 277 284 282 287 285 287 288 291 290 286 286 286 287 290 295 288 292 292 290 291 293 293 297 299 298 301 295 290 292 286 289 287 297 301 302 302 302 303 301 302 288 294 295 290 293 291 287 279 279 281 282 281 281 282 284 286 286 293 297 298 296 295 294 292 290 292 291 289 293 296 297 298
303 304 300 302 304 308 308 309 307 304 300 292 284 279 284 284 284 285 289 287 287 291 289 283 283 284 284 283 285 288 290 290 289 290 286 292 288 293 295 296 302 302 301 297 292 295 289 289 298 298 296 302 305 304 302 303 300 296 289 294 295 294 290 284 278 277 277 274 277 284 284 284 281 283 289 294 295 297 296 291 294 293 289 288 292 292 294 296
300 300 301 301 305 309 309 309 307 301 297 289 282 286 287 283 287 286 290 291 289 291 288 286 285 289 284 284 283 286 289 287 286 289 286 291 285 296 292 293 298 301 303 303 294 292 295 286 290 298 299 300 302 302 299 299 299 298 296 300 294 286 286 286 282 275 273 274 273 276 283 283 286 288 287 286 291 294 296 296 292 295 296 293 293 293 293 291
300 299 293 301 308 309 308 308 305 298 291 283 283 284 285 286 290 288 290 293 291 290 286 287 285 287 288 285 286 288 289 284 289 286 285 288 285 294 293 295 292 300 304 303 297 294 294 288 289 294 296 297 300 298 289 293 299 298 299 297 296 291 290 288 288 282 281 278 275 274 279 280 286 290 292 293 290 291 292 290 290 293 295 296 295 295 295 293
297 294 291 304 309 310 309 307 300 295 288 282 284 284 289 287 290 291 292 292 288 289 286 287 287 285 287 286 289 285 288 288 288 286 287 289 288 296 293 297 294 297 301 303 298 300 290 292 286 289 294 298 291 296 293 295 291 291 294 292 293 291 290 291 291 285 281 279 277 275 275 280 283 289 292 295 296 295 293 294 295 294 293 294 295 296 295 292
298 292 291 305 308 309 307 301 290 285 285 288 289 283 285 285 290 290 290 289 284 288 286 287 288 286 287 286 286 290 287 287 287 286 286 287 289 286 294 295 297 295 301 301 298 298 289 288 286 287 289 290 294 300 299 298 297 295 294 292 294 292 286 285 283 285 279 281 275 275 279 284 283 292 296 296 298 299 300 298 295 293 293 293 292 291 291 291
293 286 288 304 307 307 299 288 287 290 288 285 284 287 285 295 290 290 288 289 283 284 288 286 285 287 288 287 289 289 288 286 287 286 287 286 290 291 294 299 298 299 298 294 295 300 296 290 289 286 288 291 296 298 299 302 300 297 296 294 297 295 291 287 283 282 286 286 280 277 276 286 293 292 295 296 297 297 297 294 294 293 293 293 291 290 289 290
288 287 299 303 305 303 294 285 287 286 286 288 292 291 294 290 289 290 288 287 283 285 284 284 286 286 288 287 289 288 290 286 288 286 288 288 289 292 294 298 299 299 300 297 300 299 296 288 287 286 288 289 292 294 295 296 299 294 293 293 295 293 293 292 290 290 288 287 285 283 281 286 290 290 294 296 295 295 294 292 295 294 293 291 289 289 290 290
290 290 292 301 304 300 290 281 281 283 284 286 289 288 289 287 289 287 287 288 285 283 283 284 285 290 289 291 289 288 291 284 289 288 287 289 287 293 296 298 300 297 297 295 295 299 292 287 289 284 284 285 286 289 290 291 295 293 293 295 296 296 296 289 286 285 287 287 288 286 280 287 291 286 285 287 291 292 292 291 292 294 291 290 290 291 289 290
291 293 293 296 300 295 284 285 285 284 285 285 286 285 286 287 289 290 290 287 286 283 284 285 287 289 286 290 287 291 292 289 286 290 286 286 287 289 295 298 300 298 300 301 299 302 294 289 288 283 280 278 278 279 282 285 289 292 293 294 295 295 294 290 288 285 285 288 288 286 285 291 288 288 288 289 288 289 288 289 289 290 293 292 291 290 291 289
284 281 286 289 292 290 290 291 287 286 285 285 284 285 287 285 287 290 291 288 288 286 288 289 289 289 285 287 286 288 288 289 286 286 288 285 287 288 291 297 300 300 299 300 300 300 289 291 289 288 287 286 288 288 293 295 292 289 291 293 293 295 296 294 292 288 286 289 287 289 290 288 287 288 288 289 287 290 290 288 291 291 291 291 290 291 290 291
289 284 284 282 287 288 286 287 286 287 285 288 282 284 283 285 286 287 291 285 288 286 286 286 286 284 283 285 285 286 288 287 287 288 288 287 285 289 293 294 299 300 298 298 300 296 288 289 290 290 289 291 289 288 294 295 292 293 292 291 294 293 293 292 289 287 292 288 284 288 291 290 289 288 288 288 288 288 288 288 291 292 293 293 292 289 291 289
280 284 289 290 284 282 283 283 285 285 286 286 283 285 284 284 285 283 286 287 288 289 285 285 285 285 287 286 285 283 285 286 287 286 288 286 287 289 290 293 295 297 297 298 300 295 289 287 290 290 289 292 291 289 290 293 294 294 293 293 292 293 293 290 290 293 292 288 286 291 291 289 292 292 292 292 292 294 293 293 294 293 291 291 290 290 291 291
285 286 286 289 283 284 284 284 285 285 284 283 283 285 283 284 283 284 283 285 286 285 286 281 283 284 286 286 285 282 284 283 282 286 287 287 289 289 287 290 293 294 298 296 297 293 292 287 289 290 288 290 291 290 291 289 290 292 293 293 293 293 292 293 293 294 293 291 293 293 291 291 295 295 297 298 295 293 292 290 290 290 290 290 291 291 291 291
283 284 284 286 285 285 285 284 284 284 283 286 280 282 283 283 282 283 284 284 282 284 286 283 284 285 286 287 287 285 285 286 285 283 286 288 286 288 288 289 288 294 297 295 294 294 294 287 291 289 286 287 290 291 290 291 291 290 292 293 294 294 293 294 294 294 294 293 293 293 291 292 297 299 298 299 295 293 292 290 291 290 289 290 290 291 292 291
287 287 288 285 282 283 283 281 282 283 280 281 280 282 283 282 282 284 284 284 283 284 284 283 285 285 286 286 286 287 290 290 290 289 290 289 288 291 289 287 293 289 293 291 291 290 294 286 290 287 284 285 288 289 289 290 290 289 290 291 292 292 290 292 292 295 293 291 293 292 290 291 297 295 296 294 296 298 297 295 293 292 291 291 291 292 292 292
286 287 286 284 279 283 282 281 280 280 276 279 282 282 282 282 282 284 282 284 284 286 286 287 287 287 284 286 285 287 291 293 293 294 295 296 295 292 292 292 294 291 288 289 292 289 288 286 284 285 283 284 287 289 288 288 287 285 287 291 293 293 294 295 296 296 296 296 292 289 291 297 298 295 295 292 296 297 299 299 297 295 293 293 293 293 293 293
Wind_Speed
25 24 22 20 22 21 21 20 19 17 16 14 13 13 12 13 13 13 14 14 13 16 14 12 10 10 11 10 10 12 9 4 3 3 4 8 4 7 0 12 6 4 7 3 3 5 2 3 4 0 3 2 1 2 1 2 0 3 2 3 2 2 2 3 3 6 1 2 2 1 2 6 3 0 0 2 6 4 3 4 3 5 5 1 1 9 13 11
25 24 22 22 22 21 22 21 19 18 16 15 15 15 13 14 14 12 13 14 11 12 13 13 11 10 11 12 12 10 6 2 3 3 13 3 9 7 10 6 6 6 6 3 7 6 6 4 4 4 5 2 1 1 0 1 0 4 2 3 6 3 3 3 2 2 2 2 2 1 1 4 3 4 1 3 0 4 3 2 3 3 4 6 6 10 14 11
25 25 25 23 23 21 22 21 20 18 16 14 13 12 12 12 12 12 12 13 11 12 14 13 14 12 12 14 14 11 5 3 1 9 14 11 4 13 11 8 5 8 6 3 4 6 8 9 6 5 1 4 1 3 1 1 2 2 6 5 6 3 1 2 3 1 3 2 0 1 1 1 1 1 1 2 5 2 7 5 1 1 1 4 5 8 10 10
26 25 25 23 22 21 21 21 20 19 18 17 14 13 12 11 11 11 12 12 13 12 13 13 14 16 15 16 17 9 2 3 6 3 7 13 12 8 9 9 5 8 5 2 4 4 2 4 3 5 2 3 1 1 3 3 3 1 3 6 7 4 1 1 2 1 1 2 2 1 0 1 1 1 1 4 5 3 4 6 9 9 9 8 9 10 10 10
25 26 25 24 23 22 23 21 19 18 18 16 16 15 12 11 11 12 11 12 13 14 13 13 14 15 15 16 16 7 4 2 4 9 5 14 17 14 11 8 6 6 6 3 5 4 5 4 2 2 2 3 1 1 2 1 0 3 5 2 4 2 2 3 2 2 1 2 4 0 4 3 1 1 2 5 4 5 7 7 9 10 13 13 11 11 9 11
25 26 25 24 23 22 21 20 19 18 18 18 16 15 13 12 11 11 13 12 13 14 14 14 14 15 15 16 10 4 5 7 1 2 5 16 18 16 14 8 7 6 6 4 4 4 5 2 4 2 2 3 5 7 2 2 0 4 2 1 3 2 3 1 1 0 2 1 1 1 1 1 1 1 2 5 5 3 5 4 10 10 16 17 15 13 11 12
25 25 25 24 22 22 20 19 18 18 17 18 17 15 15 13 12 11 12 12 12 13 14 15 15 16 17 14 3 6 8 6 1 3 9 11 17 19 16 9 7 5 6 5 5 4 3 4 4 3 3 2 2 3 2 4 1 1 4 1 4 2 4 3 2 3 1 7 1 2 1 0 0 1 0 2 5 7 3 3 7 12 12 10 12 14 16 16
23 24 25 24 22 21 20 18 18 17 17 17 17 16 15 14 12 12 11 11 12 13 13 15 16 17 18 9 7 3 4 9 11 2 12 3 16 17 15 4 6 4 6 9 9 8 8 8 7 4 2 7 3 7 1 3 0 4 3 4 2 1 1 1 1 0 1 2 1 2 0 4 4 2 0 3 7 6 6 5 2 7 10 11 13 14 13 13
23 23 24 24 23 21 20 19 18 18 17 17 17 16 16 15 13 12 11 11 11 13 13 15 17 19 13 6 4 6 10 7 2 4 9 2 11 12 12 5 5 6 4 5 6 8 9 5 4 3 3 5 2 8 2 7 6 4 5 2 0 2 1 2 1 1 1 1 0 0 4 6 6 1 2 9 7 7 1 2 5 9 12 13 14 15 14 13
24 22 22 23 22 21 20 20 19 19 18 18 16 16 16 16 14 12 12 12 12 13 14 16 18 16 8 7 4 10 3 4 4 4 10 7 8 10 13 8 8 7 6 4 4 7 7 6 9 4 4 0 4 4 5 7 5 5 4 4 5 3 3 0 4 1 0 1 1 2 4 5 2 2 6 3 9 3 1 3 3 10 12 13 11 12 12 14
26 24 23 22 22 22 22 21 20 20 19 18 17 16 16 15 14 13 12 12 12 12 13 16 17 14 9 8 11 14 3 5 1 6 10 8 7 7 11 8 7 6 6 4 6 5 5 7 8 4 1 3 5 2 6 4 2 5 7 2 1 1 1 0 1 3 0 2 1 4 5 5 4 2 7 5 4 2 3 4 5 8 11 12 13 13 11 12
26 25 25 24 23 23 23 21 20 20 18 18 16 16 15 15 14 13 12 11 12 12 11 15 20 8 4 6 10 6 4 1 4 5 9 11 4 3 2 3 8 8 9 9 6 4 5 4 9 7 4 3 2 3 3 3 3 4 8 6 4 1 3 3 5 3 2 3 2 2 5 10 5 6 5 8 7 2 3 5 8 9 9 11 11 10 9 12
26 26 25 24 24 24 24 22 22 20 19 17 16 15 14 14 14 13 12 10 11 11 12 19 14 5 5 10 6 0 2 3 3 7 9 7 7 2 2 0 2 2 4 8 8 4 3 3 6 8 1 4 4 4 2 3 0 4 3 5 2 2 4 6 0 1 3 3 1 3 7 12 10 11 7 8 6 1 2 5 7 9 9 9 8 9 10 7
27 26 25 24 23 24 24 23 22 21 20 18 16 14 14 14 13 13 12 9 10 10 11 15 7 6 5 3 1 3 2 5 6 7 8 6 10 0 1 0 1 2 3 5 4 2 4 1 6 6 0 4 3 1 3 2 1 6 1 2 4 4 5 3 5 3 4 4 4 3 8 15 3 4 8 6 4 5 6 8 8 9 8 7 8 9 10 11
27 26 26 24 23 22 22 22 22 21 21 20 16 14 13 13 12 12 11 8 9 11 11 12 6 8 3 2 2 3 5 5 10 7 9 11 13 2 2 1 0 2 4 5 4 1 2 2 7 3 1 1 4 4 2 1 1 1 5 7 1 7 1 4 4 7 10 1 6 5 6 17 8 6 5 5 6 5 7 7 8 7 7 8 7 9 9 11
25 24 25 25 24 23 22 21 21 21 20 20 17 13 13 11 12 11 11 7 7 9 10 7 4 3 4 3 2 1 4 7 10 10 9 16 13 12 8 6 2 3 4 3 4 2 1 1 4 3 4 1 4 6 5 3 2 3 7 1 7 3 4 6 4 7 13 3 1 11 9 6 3 9 6 3 5 4 6 6 6 9 9 8 8 9 9 8
25 24 23 22 22 23 22 21 21 20 19 18 16 14 12 11 11 11 11 7 4 6 8 4 5 1 3 1 3 7 4 3 5 5 7 5 12 12 12 7 4 1 4 3 3 3 2 2 1 2 2 3 4 7 7 6 5 7 3 3 2 8 4 6 5 4 6 7 5 6 10 18 4 2 2 0 3 4 6 8 8 9 8 9 9 9 9 10
24 24 23 21 20 21 21 21 20 19 18 17 14 12 10 12 10 11 6 7 5 4 3 2 7 4 8 2 5 7 5 6 8 9 8 3 7 15 14 6 2 2 5 3 2 4 2 2 0 6 3 5 7 8 10 14 13 9 6 4 2 1 5 7 5 4 6 4 9 5 10 21 16 9 10 6 1 4 6 8 8 9 8 7 7 7 9 10
22 23 22 21 20 20 19 19 19 19 19 19 16 17 16 13 6 5 4 6 6 4 5 8 9 10 7 13 9 6 6 8 6 12 8 10 3 7 8 11 8 4 4 6 3 7 1 3 1 5 10 10 13 14 11 3 7 10 8 7 4 6 7 7 8 4 7 6 8 8 11 19 16 9 11 8 4 5 8 7 7 7 5 5 6 8 8 9
23 23 22 22 21 20 19 19 18 19 22 16 13 11 6 8 5 4 3 3 6 7 2 14 16 4 4 3 7 0 4 7 8 7 10 6 14 11 7 7 7 3 0 7 3 10 4 9 10 13 14 14 10 9 6 2 8 7 8 8 8 6 4 3 2 5 1 3 9 11 12 16 15 10 12 10 5 5 7 8 8 8 7 6 6 9 12 12
17 19 23 21 20 19 19 18 19 19 20 11 12 11 8 14 13 10 10 7 9 8 2 11 15 6 1 1 6 11 8 5 1 8 9 9 12 17 6 7 10 8 7 6 6 1 3 11 13 16 13 13 13 12 8 3 5 9 7 7 7 5 7 4 4 2 2 4 4 7 8 15 19 12 9 5 2 11 11 10 10 11 10 9 10 11 12 13
23 22 22 22 20 20 19 18 19 19 18 10 10 8 3 12 2 2 8 8 8 4 5 4 10 2 1 2 2 2 7 5 5 8 4 9 11 15 10 11 14 16 13 7 2 6 8 15 19 18 10 10 10 12 13 10 6 5 7 7 6 7 3 5 3 1 3 4 9 3 7 14 18 14 8 6 9 12 10 9 12 11 12 12 12 12 10 8
24 20 21 23 23 22 21 20 19 20 10 10 10 9 4 6 3 6 5 4 3 4 1 1 8 7 1 3 2 1 11 10 11 8 12 11 10 8 14 12 14 12 11 12 11 9 11 13 19 10 6 8 8 11 10 9 6 5 4 6 9 4 5 6 5 1 3 6 1 1 4 9 12 10 11 12 10 12 10 12 14 12 13 14 15 13 11 13
23 26 24 25 24 24 24 22 20 15 9 15 14 13 2 5 4 5 7 3 2 5 7 2 3 3 2 4 1 2 7 4 7 12 8 12 15 9 12 17 18 13 15 17 16 11 17 9 9 5 4 8 10 10 11 9 8 5 6 5 5 5 6 7 3 0 0 2 1 2 7 8 9 13 11 10 10 11 15 12 11 12 13 14 12 10 13 16
23 22 21 23 23 25 23 23 12 10 11 11 9 4 7 7 5 4 8 2 2 2 4 3 2 1 3 2 1 3 0 2 1 5 12 15 13 9 10 7 10 14 17 20 17 13 15 3 15 14 14 11 9 10 12 11 9 8 8 10 7 7 7 5 1 3 1 3 3 2 4 7 7 14 14 11 1 7 9 7 14 16 13 11 13 17 15 13
29 27 23 26 23 24 26 14 10 11 12 12 7 7 6 6 5 3 6 3 3 3 4 12 5 9 5 3 3 3 4 4 1 3 10 9 11 12 7 9 7 18 19 19 15 9 9 4 14 13 11 11 13 13 16 14 11 10 10 12 8 8 7 4 4 4 2 4 3 3 10 9 4 5 6 5 3 10 6 6 13 12 13 13 14 15 15 15
25 25 26 25 23 25 16 7 10 12 14 9 6 9 4 8 4 3 5 2 4 5 7 2 7 2 7 5 8 8 8 7 2 4 6 6 14 7 11 10 6 3 9 6 4 10 6 11 10 11 13 14 11 11 10 14 10 11 4 13 10 8 7 5 6 7 4 1 2 0 3 7 10 10 6 10 8 10 11 11 13 12 12 13 14 15 15 15
25 23 24 26 25 24 9 8 15 14 15 7 13 8 8 8 8 5 3 6 7 9 5 4 3 2 1 8 13 10 2 9 9 7 13 10 3 5 5 15 17 16 15 11 18 9 17 15 15 16 17 14 15 18 16 16 10 2 6 13 10 9 4 5 4 3 1 2 7 4 0 4 7 6 4 2 9 8 14 14 13 12 12 14 15 16 15 15
24 24 23 23 25 20 7 9 13 15 7 15 13 12 7 10 8 6 3 6 0 4 1 9 1 3 4 11 10 10 2 1 1 4 7 6 6 3 9 13 11 13 15 23 19 10 4 18 21 23 19 18 19 16 11 15 13 3 6 5 3 3 5 3 3 2 1 1 11 8 6 6 14 5 7 1 3 9 11 11 12 15 16 13 13 14 15 12
22 23 24 24 21 12 4 7 10 7 13 13 13 11 11 11 8 6 8 8 2 1 2 2 12 10 12 15 10 14 10 1 2 1 7 8 11 2 5 1 11 12 13 14 16 5 1 3 6 11 14 12 10 7 16 20 8 4 7 8 4 4 2 4 4 3 1 8 15 9 11 9 13 6 11 8 8 8 10 8 10 11 9 11 12 11 11 10
25 24 24 24 13 11 9 10 8 13 14 16 17 16 12 6 8 10 13 4 5 3 4 10 10 17 18 18 13 12 11 4 3 9 8 6 11 10 2 3 2 6 10 15 16 9 0 4 6 3 7 2 8 4 2 8 8 11 4 6 7 1 4 0 1 3 7 13 7 13 10 11 13 2 5 6 4 5 8 12 12 10 11 12 10 9 9 10
24 25 26 19 11 11 13 13 13 13 16 18 18 14 12 10 3 13 6 4 1 5 11 6 10 14 19 18 14 16 15 4 4 10 10 9 10 16 12 9 10 8 11 15 12 10 9 8 3 6 0 11 10 11 2 3 5 9 7 9 12 3 6 8 3 8 11 15 1 3 15 2 20 10 3 5 9 9 9 11 13 12 10 8 7 8 8 7
25 24 27 16 14 11 9 9 12 14 16 17 13 11 9 8 15 10 6 6 4 7 7 13 14 15 18 18 15 14 12 17 6 7 14 13 14 16 18 17 15 15 9 12 12 13 9 4 10 5 2 7 12 13 6 3 4 4 11 11 11 7 9 10 11 5 6 2 1 4 1 8 5 6 10 14 21 19 15 13 9 6 8 9 10 8 6 6
24 24 17 13 14 11 10 16 12 21 20 16 13 10 7 11 9 15 13 6 4 2 11 13 15 14 18 17 13 15 11 7 13 9 13 10 14 13 16 18 14 15 1 8 16 14 10 11 12 14 9 11 13 16 20 17 19 18 13 16 13 13 7 13 8 13 11 4 1 3 5 8 4 6 1 10 10 8 7 8 7 7 9 10 9 7 6 7
25 20 14 10 8 9 14 14 16 21 16 14 13 14 14 10 7 17 12 5 2 2 5 9 17 15 12 12 10 16 14 10 13 10 12 13 16 13 15 16 18 11 7 6 5 6 21 9 9 27 15 23 22 20 17 12 10 10 5 3 9 11 2 7 4 9 8 4 3 5 8 4 8 5 7 8 7 10 9 10 8 11 7 6 8 10 10 9
20 10 12 8 12 12 14 15 16 20 17 15 13 14 16 12 10 9 11 6 2 6 6 9 9 14 12 12 5 14 12 4 12 11 9 13 12 18 15 11 18 20 12 13 6 8 4 11 7 15 7 21 22 15 9 16 13 10 8 14 12 3 6 3 4 1 5 1 9 1 9 9 7 11 12 16 11 11 10 10 6 9 8 5 8 8 9 10
11 11 11 10 11 14 13 17 16 16 15 16 15 12 13 8 3 6 6 20 7 12 11 14 11 12 11 11 10 13 12 2 9 11 8 6 9 10 13 8 6 19 17 12 6 2 8 6 12 19 15 19 24 19 16 19 2 9 9 10 4 1 3 4 4 1 1 4 6 8 16 10 2 13 3 12 15 19 13 3 6 6 5 5 8 8 9 10
11 10 10 13 14 16 15 16 18 14 13 15 17 13 8 12 3 4 2 8 5 9 8 11 1 12 13 14 14 15 13 16 10 13 9 16 5 11 8 7 6 10 17 12 5 4 3 2 3 11 17 11 8 10 10 2 4 9 14 10 13 5 7 1 3 5 2 5 4 5 13 10 12 14 1 4 14 18 18 13 6 10 11 9 8 9 9 6
8 11 8 10 12 16 15 18 18 18 13 14 13 16 1 3 3 3 5 10 7 10 16 11 6 7 9 14 10 15 19 18 15 14 12 11 11 15 20 9 6 9 13 15 11 3 3 7 0 3 8 5 9 13 15 10 2 2 3 9 2 2 8 12 12 2 6 7 1 5 5 10 12 12 14 12 6 11 9 7 8 10 11 10 9 9 9 7
12 8 4 9 14 16 17 18 15 15 12 16 14 9 6 11 4 4 4 7 6 9 5 12 6 9 12 10 15 14 13 16 17 12 14 7 15 5 20 16 9 11 12 15 8 3 4 1 8 2 1 9 12 10 16 18 14 4 8 9 7 4 1 1 4 8 6 7 8 5 9 9 9 6 10 16 13 10 10 11 12 10 8 9 9 10 9 7
3 5 1 9 17 17 20 16 14 14 12 7 11 5 5 5 7 2 3 4 3 4 5 7 9 12 10 11 10 10 10 15 11 11 9 7 16 9 7 14 12 14 12 15 16 6 1 3 6 2 6 12 11 13 22 24 22 19 19 19 21 19 10 13 12 1 3 3 6 5 16 9 5 8 13 16 16 19 21 16 8 7 8 9 9 8 8 7
10 9 3 9 19 20 18 18 6 8 7 13 14 10 7 5 7 7 3 1 3 3 1 4 2 3 11 11 13 14 8 12 13 10 8 12 10 12 6 15 15 13 16 15 15 14 7 3 5 7 7 10 8 7 7 15 20 11 9 13 15 11 8 8 12 5 0 6 3 3 2 16 9 9 12 12 14 14 11 6 8 7 8 9 8 7 7 7
3 6 2 7 12 22 14 6 5 8 8 5 9 4 7 3 5 6 8 2 2 2 2 2 4 3 3 4 9 10 16 9 16 15 9 13 11 14 8 18 12 10 11 6 9 8 8 2 8 3 1 4 4 2 1 1 11 4 2 1 9 13 15 13 12 8 12 7 8 4 8 11 1 3 13 14 11 9 5 5 9 8 7 7 7 7 7 6
4 5 5 6 3 13 13 7 8 7 5 1 11 9 2 4 7 8 4 4 4 1 3 3 1 3 2 0 5 13 16 7 10 13 11 8 8 7 10 19 20 10 12 10 11 9 8 4 6 6 4 1 3 4 1 3 3 8 9 9 7 8 11 1 4 3 7 11 13 11 14 18 4 1 3 4 6 6 6 6 7 8 7 6 6 6 5 5
8 4 5 4 3 6 6 3 11 13 11 10 13 14 7 4 2 3 8 7 2 3 3 2 4 4 2 1 3 6 14 8 5 13 6 6 5 1 4 17 20 15 14 9 12 12 13 5 10 10 14 12 11 12 13 9 13 4 5 11 12 17 18 9 14 5 12 12 15 12 12 16 2 1 1 2 5 6 5 5 5 6 6 7 6 5 6 5
2 7 2 3 2 1 3 1 2 9 12 12 11 6 8 7 3 3 7 0 3 2 2 6 7 4 2 2 4 9 12 2 4 5 11 5 3 1 3 8 17 13 15 20 18 13 3 4 7 8 12 15 11 7 3 11 15 17 21 24 25 25 26 22 15 15 18 14 16 17 21 10 2 4 4 3 5 8 6 3 7 6 7 7 6 6 6 7
1 4 5 7 4 3 3 3 6 3 10 6 9 6 9 7 8 3 5 1 5 3 2 1 6 6 2 4 4 6 7 4 1 6 13 10 3 2 1 6 8 14 10 10 16 9 3 9 15 15 16 10 2 2 2 11 18 22 25 25 23 22 20 20 16 18 14 14 14 7 17 18 12 2 3 4 5 4 5 6 8 9 9 11 10 6 5 4
3 1 2 1 3 8 9 5 6 6 4 1 3 2 9 12 6 6 2 1 3 3 5 3 2 3 12 9 5 5 5 8 4 8 4 4 4 1 3 1 6 7 11 5 10 8 8 9 12 15 19 18 2 1 1 4 15 21 27 27 28 23 21 23 24 22 18 15 19 22 19 15 15 8 8 9 9 11 15 14 12 8 3 3 3 5 7 8
2 2 1 1 5 1 2 5 6 10 9 3 3 5 9 10 7 3 3 4 5 2 2 4 6 5 6 4 5 2 3 6 4 2 7 7 9 5 4 1 4 3 11 7 8 4 7 8 7 13 16 16 13 5 3 8 7 12 15 18 23 25 27 28 26 25 22 15 17 20 8 17 18 13 18 17 8 5 3 0 0 1 3 4 5 6 7 8
0 3 1 3 5 5 4 5 5 9 7 3 5 1 6 7 8 2 1 4 4 3 0 4 6 6 5 5 4 4 5 1 1 4 2 7 6 4 5 4 4 4 9 11 6 6 10 7 12 10 10 15 15 11 5 8 11 16 15 15 17 18 20 25 25 25 22 17 15 15 14 18 19 18 16 12 3 2 0 2 6 6 5 7 8 9 10 10
0 1 1 7 7 1 3 2 7 8 5 2 5 2 4 6 6 5 2 1 4 5 3 5 8 5 3 4 3 5 8 8 7 9 6 6 9 3 6 3 4 6 6 7 4 3 9 1 8 7 7 9 11 15 13 8 11 14 17 18 16 17 18 17 19 19 17 21 24 24 21 18 21 6 7 6 9 13 15 11 8 8 9 10 11 12 9 9
1 1 3 5 5 1 3 1 2 6 3 3 3 3 3 7 3 5 4 3 1 4 9 10 11 10 4 8 9 9 7 6 7 6 8 5 6 2 7 4 5 4 3 4 2 6 4 7 7 7 8 11 10 15 17 14 8 12 16 18 21 22 23 23 23 23 23 23 21 20 20 24 15 9 8 9 15 18 19 16 13 12 10 11 11 10 10 12
Wind_Direction
186 193 202 201 200 197 186 186 190 197 197 196 192 185 181 179 180 180 176 178 172 172 173 173 179 174 166 158 146 136 135 119 142 181 179 231 133 229 277 203 201 173 136 143 108 124 181 126 144 9 78 72 301 96 257 47 64 69 156 120 273 205 150 217 199 183 212 120 258 298 186 123 133 351 3 59 37 67 39 64 325 12 20 300 279 133 138 142
182 184 195 200 202 199 188 186 186 188 193 197 198 193 182 182 182 180 178 180 172 163 164 163 161 164 156 143 140 131 113 98 175 214 217 118 165 208 233 248 223 140 111 144 164 179 143 174 175 115 126 128 330 101 54 220 40 143 136 121 218 202 232 164 204 199 118 234 219 278 334 138 186 140 230 110 197 119 77 10 12 35 5 47 79 121 135 146
178 180 187 196 199 197 195 187 186 184 184 189 196 195 186 182 178 178 181 178 171 168 164 163 159 156 145 141 144 133 108 63 7 237 245 225 188 198 217 234 221 157 159 166 196 157 168 174 171 125 99 119 347 162 92 218 125 224 126 190 224 217 260 210 182 188 198 144 179 102 343 79 239 137 197 161 168 132 162 144 352 127 181 139 124 136 144 153
180 180 183 190 193 196 196 191 186 184 184 184 187 192 187 178 178 179 179 179 176 169 168 167 161 152 152 149 140 154 95 112 231 222 238 198 216 225 219 215 209 171 181 38 147 129 122 101 102 114 95 103 236 82 147 224 148 228 119 182 209 212 159 232 173 210 165 134 169 165 332 87 309 207 117 163 113 226 245 208 162 196 178 172 165 157 158 161
181 179 181 185 189 191 194 190 188 184 185 184 183 185 184 180 176 179 179 180 176 174 169 163 157 157 152 139 142 143 121 200 236 190 205 170 200 213 226 217 187 167 170 164 81 64 97 117 96 51 93 174 69 49 239 234 196 123 211 168 174 167 187 233 220 144 117 191 105 101 139 201 342 34 138 157 159 223 208 214 207 173 168 162 171 175 166 173
181 178 178 181 185 186 188 186 185 185 183 187 185 182 183 179 175 180 184 180 179 176 171 163 159 152 144 136 143 151 140 219 18 79 298 186 188 198 216 207 169 155 143 131 119 119 104 54 97 123 137 124 192 163 261 149 101 207 298 207 225 209 154 224 199 233 76 64 87 121 220 44 51 277 228 177 189 237 217 194 181 167 173 178 166 162 177 180
182 177 176 178 181 182 181 182 184 185 184 186 185 183 182 181 176 177 185 187 181 178 172 163 155 148 138 130 123 156 171 259 255 185 27 216 190 186 199 187 148 147 145 121 140 132 130 122 114 181 110 115 252 185 246 138 29 109 218 219 232 207 176 174 192 126 97 97 174 202 76 256 127 254 101 197 252 232 250 228 168 178 172 151 158 179 181 187
184 179 175 176 179 181 179 179 183 186 186 185 183 180 181 182 178 178 177 184 186 186 173 168 153 142 135 129 128 181 207 228 229 2 2 282 195 184 175 133 147 152 149 159 155 152 146 153 166 139 145 169 219 169 198 102 52 192 243 220 256 146 231 234 153 14 35 275 284 2 232 251 177 201 51 255 252 262 242 232 151 160 152 168 173 184 189 191
182 182 177 175 177 179 180 179 181 186 187 185 181 180 179 180 182 181 178 178 187 189 181 161 160 151 147 137 152 126 230 223 182 17 22 28 178 170 140 153 166 161 160 148 169 153 145 194 158 161 205 182 228 174 213 150 269 203 225 169 147 191 214 216 146 252 256 285 137 357 275 268 248 190 243 236 252 241 286 114 132 151 160 175 187 188 187 192
179 180 178 175 175 177 180 181 183 184 186 186 181 177 178 180 182 185 181 177 183 191 180 164 159 156 153 150 148 206 240 73 126 46 59 63 133 154 167 153 159 166 141 159 120 141 170 177 169 153 123 296 158 199 173 189 224 181 172 189 201 224 169 286 180 244 264 214 188 245 271 271 293 149 282 283 239 268 144 134 152 155 176 187 190 193 196 191
176 176 176 175 174 176 179 183 184 184 186 184 182 178 176 178 180 184 181 176 181 191 181 166 158 147 171 174 171 215 11 331 29 80 81 82 114 157 177 147 161 165 147 160 167 161 147 142 153 116 63 212 149 217 147 227 128 154 173 166 308 321 213 104 118 251 8 297 184 189 249 275 284 178 216 246 268 144 151 181 174 182 186 193 195 193 197 199
175 175 174 174 173 175 179 180 182 184 183 184 181 179 175 175 176 180 181 174 180 188 179 162 159 159 163 185 206 213 198 217 163 131 109 110 86 325 327 172 170 172 156 167 184 179 164 159 147 166 188 109 151 80 240 221 126 179 141 189 238 343 244 239 195 233 149 263 162 162 326 283 231 229 213 219 252 160 178 187 190 202 202 199 199 196 194 203
175 175 175 173 172 173 176 177 180 182 183 182 178 177 174 172 173 176 179 173 182 183 171 175 159 152 124 198 218 154 285 123 108 108 102 105 106 35 315 15 231 188 175 169 180 168 141 129 178 127 216 110 147 155 283 101 276 114 182 153 156 243 268 238 254 160 144 243 127 60 276 251 247 243 227 223 216 175 198 220 210 210 208 207 198 196 205 202
174 174 173 171 170 171 174 176 177 179 181 182 176 174 172 169 170 173 174 171 173 179 163 161 123 133 167 248 105 278 260 146 119 120 127 139 122 67 24 32 52 63 50 75 53 28 60 15 109 118 119 97 147 237 41 11 350 156 202 101 193 159 236 221 178 187 190 214 147 103 243 267 202 247 236 241 218 197 222 225 221 215 214 210 206 202 203 207
175 173 173 171 169 167 169 172 173 177 178 178 174 168 168 167 166 171 170 168 173 174 155 136 123 90 215 252 83 268 122 127 149 169 155 143 141 101 180 95 34 67 82 111 114 116 110 158 110 118 98 237 101 101 129 94 349 189 117 222 175 199 177 245 220 164 202 269 148 101 251 259 245 241 256 230 202 185 220 226 226 224 220 215 209 211 212 213
174 175 174 172 170 165 165 167 172 172 173 172 168 160 162 158 161 163 166 162 170 150 115 116 173 141 122 222 234 190 137 164 190 170 182 148 156 162 130 37 29 50 73 30 98 90 191 26 114 165 124 78 111 133 122 83 252 259 200 135 197 160 241 343 241 197 212 177 231 175 240 307 295 225 226 275 245 201 218 233 226 221 222 217 214 214 216 220
174 174 174 172 169 167 162 163 166 168 167 166 159 152 151 152 151 153 161 139 128 125 149 147 158 100 233 0 50 175 162 212 150 160 181 191 156 125 118 111 300 65 65 61 105 108 263 58 287 61 12 138 156 138 126 209 211 211 178 168 183 184 189 241 303 275 232 196 228 226 229 252 229 288 215 248 163 187 226 237 229 223 220 217 214 215 214 214
174 175 174 172 169 168 164 159 159 160 159 156 150 141 148 144 146 138 114 70 70 52 71 43 115 94 269 157 199 178 175 163 176 172 165 125 137 142 134 134 106 79 113 112 323 170 249 115 250 167 125 163 162 161 171 205 194 176 174 161 129 212 195 215 170 258 166 228 222 220 237 256 250 247 273 271 160 175 224 235 234 229 225 228 226 223 221 216
175 175 175 172 170 169 166 161 155 152 154 148 137 111 89 86 74 56 115 117 112 132 168 179 158 197 190 213 188 163 175 181 145 141 161 134 123 100 95 101 98 113 176 181 222 162 262 89 88 154 190 184 190 185 179 101 139 168 165 185 171 176 220 219 232 266 173 199 217 207 220 248 254 257 259 266 234 210 234 237 253 255 245 237 228 229 229 227
178 175 175 175 171 170 168 162 155 152 150 148 136 120 118 147 137 172 153 182 213 189 124 167 187 183 46 65 150 171 70 126 145 186 147 121 121 121 114 122 112 88 344 205 195 201 156 179 193 198 198 192 180 173 152 170 144 164 178 186 200 189 248 280 247 244 220 217 226 218 230 252 261 243 247 252 252 244 246 244 245 248 246 236 232 229 228 226
189 180 173 173 173 170 168 163 155 151 149 137 137 140 175 166 155 187 165 205 204 208 125 181 188 182 316 102 142 140 130 174 353 164 156 148 135 127 148 123 135 165 212 236 213 79 214 194 211 211 200 182 180 174 173 170 179 169 176 180 211 184 227 227 227 243 208 182 262 229 240 250 256 251 251 267 270 249 235 240 244 245 245 242 235 232 229 229
182 188 175 172 170 170 167 163 155 154 146 139 152 165 149 187 147 112 133 176 219 232 359 194 189 84 332 2 305 119 107 147 220 166 139 150 165 151 176 157 164 185 188 217 181 185 212 213 211 209 192 185 178 181 185 177 184 181 176 186 189 225 231 284 268 269 206 160 256 260 226 251 258 259 266 246 236 247 240 227 237 234 240 241 237 237 235 240
179 187 180 172 169 170 169 162 159 155 143 149 170 186 202 179 43 103 98 73 179 194 141 45 184 203 76 332 333 355 163 174 176 203 165 152 166 180 151 165 175 181 176 193 224 187 213 228 223 197 186 177 187 183 179 194 206 176 150 160 215 167 147 261 268 181 213 169 221 198 227 268 275 273 256 247 230 247 247 234 236 227 232 235 235 229 227 230
185 184 183 176 168 170 167 162 157 154 166 174 181 187 112 118 110 133 101 144 155 181 198 211 167 187 156 142 217 117 179 188 169 182 173 162 166 147 162 176 175 172 187 189 212 214 214 231 187 139 171 177 183 182 182 188 208 211 188 192 181 180 203 185 243 162 311 309 76 314 293 274 260 277 272 250 225 244 251 247 253 247 237 238 247 246 230 232
184 187 173 177 171 165 164 155 157 174 168 177 199 161 132 136 112 141 95 85 29 306 136 279 61 226 176 36 89 166 44 344 293 155 179 168 157 150 191 169 157 184 181 192 200 232 244 127 144 180 182 181 172 180 192 183 207 212 218 197 187 180 198 206 129 126 25 318 243 180 322 266 240 245 253 264 20 248 248 249 250 248 246 241 243 243 241 240
183 182 174 177 169 163 151 159 183 168 161 189 179 162 148 135 90 97 93 91 241 207 128 210 117 242 125 194 84 142 52 247 207 160 171 188 174 168 153 195 165 182 184 181 196 222 226 183 174 183 160 186 189 193 193 180 198 195 214 189 180 176 192 144 153 101 257 216 297 144 214 270 325 294 250 256 229 253 274 228 251 248 245 243 238 240 238 234
181 176 168 175 170 153 155 185 152 147 171 204 138 142 132 128 118 77 119 340 265 169 162 128 168 238 174 171 140 131 199 202 78 112 199 192 185 355 179 171 168 206 175 155 191 216 164 183 181 165 175 185 192 208 205 190 188 222 159 166 182 165 160 171 158 181 222 243 298 146 174 265 283 254 263 257 245 260 269 255 246 245 244 239 240 237 235 234
178 172 169 171 166 159 166 127 146 170 191 129 141 126 102 117 87 47 77 186 238 112 176 183 222 4 85 154 145 173 259 137 169 211 188 188 150 175 209 187 183 170 166 159 210 206 188 187 177 169 182 188 200 206 188 186 190 243 152 163 186 170 148 145 132 168 249 37 272 201 41 311 240 275 275 242 250 255 256 253 256 254 240 239 239 240 235 231
174 169 169 170 162 160 114 132 165 184 131 125 128 123 119 95 99 121 181 190 106 115 116 155 83 85 119 146 163 192 78 329 46 141 176 180 220 99 175 200 201 182 176 179 196 197 162 196 187 182 180 198 204 194 159 175 202 276 156 127 115 94 69 97 98 121 331 121 242 201 173 234 272 207 232 271 203 239 242 247 247 245 245 241 242 245 244 240
177 168 167 166 161 151 135 138 181 136 133 117 114 110 103 99 98 175 194 231 113 257 201 177 172 179 152 164 177 191 190 215 127 113 162 177 191 359 301 280 189 183 191 207 215 190 170 354 168 185 199 212 196 169 174 184 171 127 103 99 62 43 62 30 73 92 352 240 246 177 189 174 280 187 204 181 219 204 239 252 250 256 263 257 248 245 247 246
175 168 166 160 165 163 147 171 160 141 129 128 129 118 98 101 169 166 211 210 68 196 111 177 173 142 163 165 172 191 201 151 147 153 166 179 201 208 134 200 171 205 194 193 210 217 148 118 159 243 214 75 117 150 200 162 139 135 126 121 100 327 20 47 333 94 220 253 240 163 177 162 236 285 278 244 271 244 215 242 249 251 247 248 251 252 248 242
174 167 165 166 161 150 168 178 149 138 134 134 127 130 137 150 202 198 184 55 103 190 157 145 163 163 167 177 173 175 185 177 190 170 173 190 170 190 192 201 158 211 208 184 209 192 218 184 168 194 235 144 158 151 345 142 180 161 123 144 160 196 169 222 141 212 205 237 342 185 145 155 235 235 277 260 242 251 229 229 236 238 251 264 265 256 253 253
171 169 168 167 146 178 180 117 136 137 135 130 131 148 159 171 193 182 189 158 258 154 202 160 169 180 172 171 194 176 177 193 149 190 173 194 204 205 196 200 181 194 191 190 195 181 215 191 182 175 114 196 169 168 139 143 237 186 173 165 168 173 192 220 203 239 261 347 289 121 304 249 284 299 218 243 253 238 239 243 244 252 254 262 270 272 274 271
170 168 172 171 171 165 137 145 144 143 139 142 146 146 184 193 199 178 189 184 195 347 162 168 165 178 169 183 185 165 185 204 169 184 182 193 202 209 209 210 197 204 309 178 193 182 179 206 206 155 203 155 189 188 179 176 175 195 189 181 186 180 180 205 190 206 217 218 140 229 134 229 140 246 229 239 261 288 269 261 252 243 244 248 259 275 274 279
169 169 165 160 143 147 158 144 157 143 138 146 154 175 175 196 170 183 202 178 295 194 185 157 163 167 190 200 181 184 176 183 187 161 187 182 203 207 202 204 209 209 167 167 220 189 204 213 173 184 175 172 187 196 184 163 184 194 179 145 203 211 103 207 186 204 205 136 203 205 206 194 199 266 284 223 255 271 260 260 264 271 267 255 261 256 256 256
162 167 152 158 170 171 163 145 165 145 148 157 154 183 197 180 189 169 199 141 179 157 157 170 166 175 180 191 194 185 223 200 177 171 203 204 197 201 200 198 201 198 181 200 138 209 183 232 166 177 156 182 193 178 182 145 188 183 154 207 202 128 113 98 29 33 74 75 243 127 292 275 309 291 278 292 281 271 248 245 249 258 254 251 246 250 255 255
160 138 171 165 170 161 166 153 160 159 157 167 177 196 187 200 204 172 151 184 173 142 154 176 190 166 173 194 185 184 200 102 186 180 202 160 244 217 205 226 203 197 201 178 213 278 187 209 181 173 193 197 192 182 176 184 144 122 203 195 75 85 119 133 193 0 130 177 253 182 232 256 73 273 226 217 242 253 266 192 244 251 240 248 246 243 243 245
144 169 157 171 164 157 161 159 154 161 163 173 197 189 184 198 199 155 121 125 126 171 164 184 214 178 183 177 195 182 179 192 177 188 203 175 253 159 212 215 217 216 188 197 180 227 109 242 240 209 190 193 179 150 191 148 350 182 189 154 164 208 224 267 138 209 153 219 249 253 226 245 193 226 264 192 221 247 252 259 250 264 261 243 251 255 253 254
129 145 171 170 152 159 158 159 163 163 168 183 188 197 161 233 166 179 184 159 161 163 189 191 156 212 179 194 178 184 176 196 170 194 184 195 207 182 194 158 209 192 198 178 200 207 263 211 59 248 198 158 167 165 194 187 298 331 81 183 189 124 212 175 197 168 166 234 252 284 152 243 199 216 197 236 213 234 247 250 256 239 239 234 232 242 252 252
144 147 203 163 154 154 152 159 162 170 183 192 186 201 139 186 166 188 209 162 169 169 221 176 193 165 198 202 175 182 191 199 185 192 200 151 207 169 194 188 174 176 184 197 205 153 221 110 211 160 224 160 196 189 192 176 172 155 172 189 207 216 286 132 222 197 167 204 221 265 269 258 246 193 182 217 230 232 224 237 240 240 238 237 234 234 243 249
112 108 126 159 155 151 153 160 178 186 179 199 200 168 142 167 150 219 136 56 108 357 156 181 174 188 180 177 206 176 186 194 194 194 196 186 185 210 214 191 166 181 164 185 205 185 154 175 195 150 195 207 194 191 193 184 180 182 181 192 191 183 177 178 220 85 149 153 223 189 255 262 265 183 190 201 207 223 235 238 237 238 237 238 235 237 231 241
142 144 219 154 151 156 159 169 185 171 184 186 186 166 173 171 145 162 97 111 74 149 358 108 23 196 189 196 173 180 168 194 198 190 205 201 199 217 179 183 194 164 168 190 192 184 174 161 157 210 218 205 207 222 222 198 191 192 187 200 189 191 176 196 204 218 236 229 136 179 323 272 172 173 204 202 212 222 231 203 225 233 236 241 239 236 238 225
81 116 76 103 156 158 163 157 141 156 184 180 89 83 135 125 138 155 147 183 129 237 107 104 191 135 258 163 186 176 172 191 187 203 191 204 219 207 170 180 177 193 170 179 164 200 78 157 181 217 348 331 330 299 58 351 192 236 298 57 179 193 193 200 205 187 200 191 217 241 252 264 295 222 196 195 210 222 221 183 215 229 239 247 241 241 229 229
86 100 74 43 177 158 157 174 145 147 124 336 149 145 56 144 162 150 150 182 147 220 131 149 67 259 157 265 174 183 175 186 208 194 211 207 233 211 187 183 177 189 181 191 184 160 185 206 159 157 179 163 343 350 283 358 178 199 193 200 196 189 205 224 74 64 209 204 209 194 231 259 221 159 299 225 223 223 215 221 207 220 238 239 226 228 232 230
112 74 62 108 38 52 142 234 150 143 146 147 147 149 147 111 261 193 143 169 162 167 132 145 161 171 134 144 210 183 193 181 152 207 165 190 210 245 164 194 189 187 191 190 176 168 197 164 157 192 181 181 192 196 189 174 195 154 193 200 204 190 190 172 216 172 220 210 201 209 235 245 3 78 184 206 215 243 253 240 234 221 216 205 223 234 231 234
144 124 148 99 74 77 52 24 53 130 136 141 127 155 137 138 139 204 140 141 182 171 92 131 82 103 81 123 147 196 191 208 162 174 186 200 215 302 218 185 201 203 203 182 160 157 199 172 204 210 209 209 210 211 252 189 164 185 191 193 197 199 195 195 197 201 210 212 211 211 222 233 183 182 184 185 182 211 213 211 201 222 242 233 217 213 212 212
97 88 150 141 125 32 123 124 130 134 140 167 128 163 149 142 133 143 177 100 241 168 105 98 159 134 207 140 155 173 186 157 229 160 196 181 221 189 79 151 201 216 167 157 169 143 118 191 199 208 238 251 71 245 126 160 185 194 191 201 201 200 196 199 201 216 208 220 238 231 235 234 227 265 266 247 246 231 236 202 208 211 209 196 204 211 226 256
75 318 57 79 128 156 140 140 151 130 130 92 99 102 139 140 153 142 124 222 159 213 112 353 130 214 166 164 146 147 182 169 174 183 143 185 117 211 121 254 190 189 163 189 200 167 153 197 204 199 224 232 235 289 292 218 210 205 199 192 195 194 192 199 212 216 205 208 221 221 218 231 237 220 240 227 207 200 201 206 202 192 187 193 166 190 210 218
110 109 81 308 101 60 82 129 132 139 139 144 93 126 142 144 145 155 151 138 146 238 93 140 199 203 167 143 115 137 155 149 238 215 179 173 175 140 150 119 233 213 174 197 199 187 137 219 183 191 226 233 234 237 215 191 217 236 230 212 200 190 195 200 210 216 212 219 228 238 211 229 234 208 216 222 207 194 224 149 169 216 214 190 207 211 212 221
316 119 119 5 72 103 103 111 122 128 123 124 109 173 141 148 149 137 53 132 158 184 38 98 169 171 172 170 136 144 203 246 137 207 270 178 184 177 183 182 149 160 193 202 165 274 184 207 165 176 218 231 227 230 234 228 207 213 218 219 213 211 209 208 211 214 215 227 238 248 239 244 238 220 220 224 179 210 83 202 208 206 211 205 202 213 218 217
252 218 138 119 92 50 63 65 123 134 107 44 90 183 125 166 153 165 133 150 147 155 140 155 154 129 139 198 214 187 192 178 166 193 173 195 190 204 156 234 144 162 177 192 190 184 188 250 136 144 190 240 219 223 220 229 227 220 212 205 204 205 216 218 220 215 203 213 221 232 235 236 247 167 190 164 174 216 228 214 209 221 211 208 207 217 219 222
355 307 82 100 86 345 121 109 75 90 93 223 141 175 154 194 172 148 95 341 110 158 153 158 162 145 172 185 202 209 191 153 174 184 156 120 98 49 81 69 81 136 169 180 200 147 161 141 148 158 188 231 206 209 217 212 231 236 216 204 203 206 209 212 221 218 213 205 215 223 237 232 234 121 179 186 190 207 218 222 222 218 213 210 217 222 221 224